Radiation Dose at Monitoring Post of Fukushima Daini Nuclear Power Station
Date,Time,MP-1(microSv/h),MP-2(microSv/h),MP-3(microSv/h),MP-4(microSv/h),MP-5(microSv/h),MP-6(microSv/h),MP-7(microSv/h),Wind Direction,Wind Velocity(m/s),Rain
2020/08/16,00:00,0.181,0.164,0.273,0.260,0.252,0.141,0.086,north-northwest,1.4,No
2020/08/16,00:10,0.181,0.163,0.272,0.259,0.253,0.142,0.085,northwest,1.0,No
2020/08/16,00:20,0.181,0.165,0.272,0.257,0.252,0.140,0.086,northwest,1.0,No
2020/08/16,00:30,0.180,0.167,0.271,0.257,0.249,0.141,0.086,northwest,2.0,No
2020/08/16,00:40,0.179,0.165,0.276,0.261,0.249,0.143,0.086,north-northwest,0.8,No
2020/08/16,00:50,0.182,0.164,0.274,0.261,0.248,0.142,0.085,-,CALM,No
2020/08/16,01:00,0.182,0.164,0.273,0.259,0.251,0.142,0.086,northwest,0.9,No
2020/08/16,01:10,0.181,0.164,0.271,0.257,0.253,0.141,0.086,north,0.9,No
2020/08/16,01:20,0.179,0.166,0.270,0.259,0.251,0.142,0.086,east-northeast,0.8,No
2020/08/16,01:30,0.179,0.165,0.276,0.261,0.250,0.142,0.086,east-northeast,0.7,No
2020/08/16,01:40,0.182,0.165,0.274,0.261,0.248,0.141,0.086,north-northeast,1.6,No
2020/08/16,01:50,0.183,0.164,0.273,0.258,0.249,0.141,0.087,north,1.6,No
2020/08/16,02:00,0.180,0.167,0.270,0.258,0.252,0.141,0.085,north,3.5,No
2020/08/16,02:10,0.179,0.165,0.270,0.259,0.251,0.142,0.086,north,5.3,No
2020/08/16,02:20,0.180,0.164,0.273,0.261,0.249,0.141,0.085,north,5.7,No
2020/08/16,02:30,0.180,0.163,0.273,0.258,0.250,0.141,0.087,north,5.9,No
2020/08/16,02:40,0.180,0.165,0.272,0.257,0.251,0.141,0.085,north-northwest,5.1,No
2020/08/16,02:50,0.179,0.165,0.270,0.258,0.253,0.140,0.085,north-northwest,5.1,No
2020/08/16,03:00,0.182,0.165,0.273,0.261,0.251,0.142,0.085,north-northwest,4.3,No
2020/08/16,03:10,0.182,0.164,0.275,0.259,0.249,0.142,0.086,northwest,3.6,No
2020/08/16,03:20,0.180,0.165,0.272,0.258,0.247,0.141,0.087,northwest,3.9,No
2020/08/16,03:30,0.178,0.166,0.269,0.258,0.252,0.142,0.086,northwest,4.7,No
2020/08/16,03:40,0.180,0.165,0.271,0.261,0.252,0.141,0.085,north-northwest,4.7,No
2020/08/16,03:50,0.182,0.165,0.276,0.262,0.250,0.140,0.086,north-northwest,4.9,No
2020/08/16,04:00,0.181,0.165,0.273,0.261,0.250,0.142,0.087,north-northwest,4.7,No
2020/08/16,04:10,0.181,0.166,0.272,0.259,0.250,0.142,0.086,north-northwest,6.6,No
2020/08/16,04:20,0.179,0.166,0.271,0.257,0.253,0.141,0.086,north-northwest,7.5,No
2020/08/16,04:30,0.181,0.165,0.274,0.262,0.251,0.141,0.086,north-northwest,7.3,No
2020/08/16,04:40,0.181,0.163,0.275,0.260,0.249,0.141,0.086,north-northwest,6.6,No
2020/08/16,04:50,0.181,0.164,0.273,0.259,0.248,0.142,0.086,north-northwest,5.8,No
2020/08/16,05:00,0.180,0.165,0.271,0.257,0.252,0.142,0.085,north-northwest,5.0,No
2020/08/16,05:10,0.180,0.165,0.271,0.260,0.252,0.141,0.086,north,4.3,No
2020/08/16,05:20,0.182,0.164,0.273,0.259,0.249,0.140,0.086,north-northwest,2.6,No
2020/08/16,05:30,0.181,0.164,0.272,0.259,0.248,0.141,0.086,north-northwest,2.6,No
2020/08/16,05:40,0.180,0.166,0.272,0.256,0.251,0.141,0.084,north,3.9,No
2020/08/16,05:50,0.179,0.165,0.272,0.261,0.252,0.141,0.085,north-northwest,3.6,No
2020/08/16,06:00,0.182,0.164,0.274,0.260,0.251,0.140,0.086,north-northwest,3.3,No
2020/08/16,06:10,0.181,0.164,0.272,0.257,0.248,0.141,0.086,north,3.6,No
2020/08/16,06:20,0.180,0.165,0.271,0.256,0.248,0.141,0.085,north,2.8,No
2020/08/16,06:30,0.178,0.166,0.269,0.260,0.252,0.140,0.084,-,CALM,No
2020/08/16,06:40,0.181,0.164,0.275,0.261,0.250,0.140,0.085,west-northwest,1.2,No
2020/08/16,06:50,0.181,0.163,0.274,0.258,0.248,0.141,0.086,northwest,1.8,No
2020/08/16,07:00,0.180,0.164,0.272,0.258,0.248,0.142,0.086,north-northwest,2.7,No
2020/08/16,07:10,0.179,0.164,0.270,0.257,0.248,0.142,0.085,northwest,2.7,No
2020/08/16,07:20,0.179,0.166,0.271,0.255,0.249,0.141,0.085,north-northwest,3.5,No
2020/08/16,07:30,0.181,0.166,0.269,0.257,0.248,0.141,0.085,northwest,2.5,No
2020/08/16,07:40,0.181,0.164,0.271,0.256,0.248,0.141,0.085,north-northwest,2.2,No
2020/08/16,07:50,0.181,0.165,0.269,0.257,0.248,0.141,0.085,north-northwest,0.9,No
2020/08/16,08:00,0.179,0.163,0.271,0.257,0.248,0.140,0.085,north-northwest,1.3,No
2020/08/16,08:10,0.179,0.163,0.271,0.261,0.248,0.142,0.085,north,2.7,Yes
2020/08/16,08:20,0.179,0.164,0.271,0.263,0.250,0.142,0.086,north-northwest,3.7,Yes
2020/08/16,08:30,0.181,0.166,0.273,0.261,0.250,0.142,0.087,north-northwest,3.2,Yes
2020/08/16,08:40,0.181,0.167,0.277,0.260,0.254,0.141,0.085,north-northwest,3.4,Yes
2020/08/16,08:50,0.184,0.168,0.275,0.259,0.255,0.142,0.087,north-northwest,3.9,Yes
2020/08/16,09:00,0.183,0.167,0.273,0.258,0.253,0.142,0.088,north-northwest,3.8,No
2020/08/16,09:10,0.181,0.165,0.272,0.261,0.250,0.142,0.087,north,3.1,No
2020/08/16,09:20,0.180,0.164,0.270,0.264,0.249,0.143,0.087,north,2.1,No
2020/08/16,09:30,0.180,0.164,0.275,0.261,0.248,0.142,0.086,north-northwest,1.2,Yes
2020/08/16,09:40,0.182,0.164,0.275,0.261,0.250,0.142,0.086,north-northwest,2.2,No
2020/08/16,09:50,0.183,0.167,0.275,0.258,0.255,0.141,0.085,north-northwest,2.2,No
2020/08/16,10:00,0.181,0.168,0.273,0.258,0.252,0.142,0.087,north,2.2,Yes
2020/08/16,10:10,0.183,0.168,0.271,0.260,0.251,0.144,0.089,north-northwest,3.0,Yes
2020/08/16,10:20,0.184,0.168,0.275,0.262,0.250,0.145,0.090,north-northwest,1.9,Yes
2020/08/16,10:30,0.185,0.169,0.276,0.260,0.252,0.146,0.089,north-northwest,1.5,No
2020/08/16,10:40,0.183,0.169,0.272,0.257,0.254,0.145,0.089,-,CALM,No
2020/08/16,10:50,0.182,0.167,0.270,0.256,0.252,0.144,0.089,northwest,1.1,No
2020/08/16,11:00,0.182,0.166,0.270,0.257,0.252,0.143,0.088,west,0.6,No
2020/08/16,11:10,0.181,0.166,0.270,0.256,0.250,0.143,0.088,west,0.6,No
2020/08/16,11:20,0.180,0.166,0.270,0.257,0.249,0.142,0.087,south-southwest,0.9,No
2020/08/16,11:30,0.180,0.165,0.272,0.258,0.251,0.142,0.086,west-southwest,0.8,No
2020/08/16,11:40,0.180,0.165,0.271,0.257,0.250,0.143,0.087,southeast,0.8,No
2020/08/16,11:50,0.182,0.166,0.272,0.257,0.251,0.142,0.087,east-southeast,1.8,No
2020/08/16,12:00,0.180,0.165,0.272,0.257,0.251,0.141,0.085,southeast,1.3,No
2020/08/16,12:10,0.180,0.167,0.271,0.257,0.250,0.142,0.086,-,CALM,No
2020/08/16,12:20,0.179,0.165,0.271,0.258,0.250,0.141,0.087,-,CALM,No
2020/08/16,12:30,0.180,0.165,0.271,0.258,0.249,0.141,0.085,south-southeast,0.8,No
2020/08/16,12:40,0.180,0.165,0.270,0.258,0.249,0.141,0.086,south,0.8,No
2020/08/16,12:50,0.180,0.164,0.272,0.258,0.249,0.140,0.085,west-southwest,0.9,No
2020/08/16,13:00,0.180,0.165,0.270,0.258,0.250,0.141,0.086,southwest,0.7,No
2020/08/16,13:10,0.180,0.165,0.271,0.257,0.249,0.141,0.086,southwest,1.3,No
2020/08/16,13:20,0.180,0.164,0.269,0.257,0.248,0.140,0.085,-,CALM,No
2020/08/16,13:30,0.179,0.164,0.269,0.257,0.248,0.141,0.085,south-southeast,1.7,No
2020/08/16,13:40,0.180,0.165,0.270,0.256,0.250,0.141,0.085,south-southeast,2.2,No
2020/08/16,13:50,0.180,0.165,0.270,0.257,0.249,0.141,0.086,south-southeast,1.5,No
2020/08/16,14:00,0.181,0.165,0.271,0.258,0.249,0.141,0.086,south-southeast,1.9,No
2020/08/16,14:10,0.180,0.165,0.272,0.258,0.250,0.142,0.085,south-southeast,1.8,No
2020/08/16,14:20,0.181,0.164,0.270,0.257,0.251,0.141,0.086,southeast,1.8,No
2020/08/16,14:30,0.179,0.165,0.269,0.258,0.250,0.141,0.086,southeast,2.0,No
2020/08/16,14:40,0.179,0.166,0.272,0.258,0.251,0.141,0.086,south,2.6,No
2020/08/16,14:50,0.182,0.165,0.271,0.258,0.251,0.141,0.085,south,1.8,No
2020/08/16,15:00,0.181,0.165,0.272,0.258,0.250,0.142,0.086,south-southeast,1.7,No
2020/08/16,15:10,0.181,0.165,0.271,0.259,0.251,0.141,0.086,southeast,3.1,No
2020/08/16,15:20,0.182,0.164,0.270,0.257,0.250,0.141,0.085,south-southeast,3.2,No
2020/08/16,15:30,0.181,0.166,0.270,0.257,0.251,0.141,0.086,south,3.0,No
2020/08/16,15:40,0.181,0.165,0.271,0.258,0.252,0.142,0.085,south,2.6,No
2020/08/16,15:50,0.180,0.165,0.270,0.258,0.250,0.142,0.086,south-southeast,2.2,No
2020/08/16,16:00,0.180,0.164,0.271,0.257,0.251,0.142,0.085,south-southeast,1.6,No
2020/08/16,16:10,0.180,0.164,0.271,0.258,0.251,0.142,0.086,southeast,2.4,No
2020/08/16,16:20,0.179,0.165,0.270,0.258,0.250,0.142,0.085,south-southeast,2.6,No
2020/08/16,16:30,0.180,0.164,0.271,0.257,0.250,0.141,0.085,south-southeast,2.4,No
2020/08/16,16:40,0.180,0.164,0.270,0.257,0.249,0.141,0.086,south-southeast,2.4,No
2020/08/16,16:50,0.180,0.164,0.270,0.257,0.249,0.141,0.086,south,2.5,No
2020/08/16,17:00,0.180,0.164,0.270,0.256,0.249,0.142,0.085,south,2.6,No
2020/08/16,17:10,0.179,0.164,0.269,0.257,0.247,0.141,0.085,south-southeast,3.2,No
2020/08/16,17:20,0.179,0.164,0.269,0.257,0.247,0.141,0.085,south-southeast,3.0,No
2020/08/16,17:30,0.179,0.163,0.270,0.255,0.248,0.140,0.085,south-southeast,2.3,No
2020/08/16,17:40,0.179,0.163,0.268,0.257,0.247,0.141,0.086,south-southeast,1.9,No
2020/08/16,17:50,0.179,0.163,0.271,0.258,0.248,0.141,0.086,south,2.1,No
2020/08/16,18:00,0.182,0.163,0.273,0.261,0.248,0.141,0.086,south,4.0,No
2020/08/16,18:10,0.182,0.164,0.274,0.259,0.250,0.141,0.084,south,3.2,No
2020/08/16,18:20,0.181,0.166,0.271,0.256,0.247,0.141,0.086,south,2.2,No
2020/08/16,18:30,0.180,0.165,0.271,0.256,0.248,0.142,0.085,south-southwest,2.1,No
2020/08/16,18:40,0.179,0.164,0.270,0.256,0.248,0.140,0.087,south,1.2,No
2020/08/16,18:50,0.180,0.163,0.272,0.260,0.253,0.141,0.086,south-southwest,1.1,No
2020/08/16,19:00,0.182,0.165,0.273,0.260,0.253,0.142,0.086,south,1.3,No
2020/08/16,19:10,0.179,0.165,0.273,0.257,0.249,0.143,0.085,south,0.9,No
2020/08/16,19:20,0.180,0.165,0.271,0.257,0.249,0.141,0.086,-,CALM,No
2020/08/16,19:30,0.181,0.164,0.269,0.259,0.248,0.141,0.086,south-southwest,1.0,No
2020/08/16,19:40,0.182,0.165,0.273,0.260,0.251,0.142,0.086,west,0.9,No
2020/08/16,19:50,0.182,0.167,0.271,0.259,0.251,0.142,0.085,west,0.7,No
2020/08/16,20:00,0.180,0.165,0.271,0.257,0.250,0.141,0.087,west-northwest,0.6,No
2020/08/16,20:10,0.180,0.164,0.270,0.258,0.248,0.141,0.087,west-northwest,0.8,No
2020/08/16,20:20,0.181,0.165,0.273,0.261,0.251,0.142,0.086,north-northeast,0.8,No
2020/08/16,20:30,0.181,0.166,0.274,0.258,0.252,0.143,0.087,north,1.1,No
2020/08/16,20:40,0.181,0.164,0.271,0.257,0.251,0.141,0.087,west,0.7,No
2020/08/16,20:50,0.180,0.164,0.271,0.258,0.249,0.141,0.087,-,CALM,No
2020/08/16,21:00,0.182,0.165,0.274,0.261,0.249,0.141,0.087,west,0.6,No
2020/08/16,21:10,0.181,0.166,0.273,0.257,0.252,0.142,0.085,west-southwest,1.1,No
2020/08/16,21:20,0.180,0.164,0.271,0.256,0.252,0.141,0.087,southwest,1.5,No
2020/08/16,21:30,0.180,0.164,0.271,0.259,0.249,0.141,0.086,southwest,2.4,No
2020/08/16,21:40,0.182,0.165,0.273,0.262,0.249,0.142,0.087,southwest,2.7,No
2020/08/16,21:50,0.181,0.166,0.273,0.257,0.252,0.143,0.086,west-southwest,2.4,No
2020/08/16,22:00,0.179,0.164,0.271,0.256,0.251,0.142,0.086,south-southwest,2.3,No
2020/08/16,22:10,0.181,0.165,0.272,0.260,0.249,0.140,0.086,south,1.4,No
2020/08/16,22:20,0.181,0.166,0.274,0.261,0.247,0.142,0.085,south-southwest,1.6,No
2020/08/16,22:30,0.181,0.164,0.273,0.258,0.251,0.142,0.085,southwest,1.2,No
2020/08/16,22:40,0.180,0.164,0.270,0.258,0.253,0.140,0.087,southwest,2.7,No
2020/08/16,22:50,0.182,0.165,0.273,0.260,0.249,0.141,0.087,southwest,4.7,No
2020/08/16,23:00,0.181,0.165,0.273,0.259,0.248,0.142,0.086,southwest,5.1,No
2020/08/16,23:10,0.180,0.164,0.271,0.257,0.248,0.142,0.086,southwest,4.0,No
2020/08/16,23:20,0.179,0.164,0.270,0.256,0.253,0.142,0.086,southwest,2.8,No
2020/08/16,23:30,0.182,0.166,0.274,0.260,0.250,0.141,0.085,south-southwest,1.8,No
2020/08/16,23:40,0.182,0.165,0.272,0.259,0.249,0.142,0.085,west-southwest,5.6,No
2020/08/16,23:50,0.181,0.163,0.271,0.256,0.248,0.141,0.086,west-southwest,5.9,No
